Regional Weather Roundup
Issued by NWS Columbia, SC

Home | Current Version | Previous Version | Text Only | Print | Product List | Glossary On
Versions: 1 2 3 4 5 6 7 8 9 10 11 12 13 14 15 16 17 18 19 20 21 22 23 24 25 26 27 28 29 30 31 32 33 34 35 36 37 38 39 40 41 42 43 44 45 46 47 48 49 50
000
ASUS42 KCAE 171210
RWRCAE
REGIONAL WEATHER ROUNDUP
NATIONAL WEATHER SERVICE COLUMBIA SC
700 AM EST SUN DEC 17 2017

NOTE: "FAIR" INDICATES FEW OR NO CLOUDS BELOW 12,000 FEET WITH NO
SIGNIFICANT WEATHER AND/OR OBSTRUCTIONS TO VISIBILITY.

NOT ALL STATIONS ARE QUALITY CONTROLLED BY THE NATIONAL
WEATHER SERVICE. USE DATA WITH CAUTION...ESPECIALLY
DEWPOINT OBSERVATIONS.

SCZ001>056-GAZ040-063>065-077-171300-
...UPSTATE SOUTH CAROLINA...

CITY           SKY/WX    TMP DP  RH WIND       PRES   REMARKS
ANDERSON       PTCLDY    29  26  89 NE3       30.24R
6HR MIN TEMP:  28; 6HR MAX TEMP:  34;

LIBERTY        MOSUNNY   25  25  98 CALM      30.22R
6HR MIN TEMP:  24; 6HR MAX TEMP:  27;

SPARTANBURG    PTCLDY    28  27  93 CALM      30.24S
CLEMSON        CLOUDY    29  29 100 CALM      30.24R
6HR MIN TEMP:  29; 6HR MAX TEMP:  35;

GREENVILLE     CLOUDY    32  25  75 CALM      30.24R
6HR MIN TEMP:  32; 6HR MAX TEMP:  38;

GREENWOOD      CLOUDY    28  25  88 CALM      30.27R
6HR MIN TEMP:  25; 6HR MAX TEMP:  31;

GREER          CLOUDY    30  25  81 CALM      30.24S
6HR MIN TEMP:  29; 6HR MAX TEMP:  36;

ROCK HILL      CLOUDY    25  23  92 CALM      30.26S
6HR MIN TEMP:  25; 6HR MAX TEMP:  29;

CHESTER        CLOUDY    28  27  93 CALM      30.28R
LAURENS        CLOUDY    30  28  93 CALM      30.25R


...CENTRAL SOUTH CAROLINA...

CITY           SKY/WX    TMP DP  RH WIND       PRES   REMARKS
COLUMBIA APT   CLOUDY    29  27  92 CALM      30.28R
6HR MIN TEMP:  28; 6HR MAX TEMP:  34;

COLUMBIA OWENS CLOUDY    30  28  92 CALM      30.30R
6HR MIN TEMP:  30; 6HR MAX TEMP:  33;

MCENTIRE ANGB  MOCLDY    27  26  97 CALM      30.28R
6HR MIN TEMP:  26; 6HR MAX TEMP:  29;

ORANGEBURG     CLOUDY    29  28  96 CALM      30.29R
6HR MIN TEMP:  29; 6HR MAX TEMP:  31;

SUMTER SHAW    CLOUDY    28  25  88 CALM      30.27R
6HR MIN TEMP:  28; 6HR MAX TEMP:  33;

NEWBERRY       CLOUDY    32  28  86 S3        30.30R
AIKEN          FAIR      28  27  93 CALM      30.30R
BARNWELL         N/A     28  27  93 CALM      30.28F
MANNING        FAIR      30  28  93 MISG      30.31R
CAMDEN         FAIR      25  23  93 CALM      30.29R
LANCASTER      CLOUDY    27  27 100 CALM      30.28R
WINNSBORO      MOSUNNY   34  30  86 SE5       30.26S WCI  30


...EASTERN AND COASTAL SOUTH CAROLINA...

CITY           SKY/WX    TMP DP  RH WIND       PRES   REMARKS
MYRTLE BEACH   CLEAR     32  30  92 CALM      30.31
6HR MIN TEMP:  30; 6HR MAX TEMP:  37;

N MYRTLE BCH   PTCLDY    31  31 100 CALM      30.30S FOG
6HR MIN TEMP:  29; 6HR MAX TEMP:  36;

CONWAY         FAIR      28  28 100 CALM      30.31R
MARION         FAIR      28  28 100 CALM      30.30S
HARTSVILLE     FAIR      28  27  93 CALM      30.28R
FLORENCE       CLOUDY    29  27  92 CALM      30.30R
6HR MIN TEMP:  28; 6HR MAX TEMP:  33;

DARLINGTON     CLOUDY    26  25  96 CALM      30.30R
6HR MIN TEMP:  25; 6HR MAX TEMP:  28;

CHARLESTON APT CLOUDY    34  34 100 CALM      30.30S
6HR MIN TEMP:  31; 6HR MAX TEMP:  37;

MOUNT PLEASANT FAIR      34  32  93 CALM      30.31R FOG
WALTERBORO     CLOUDY    30  28  93 CALM      30.31R
BEAUFORT       PTCLDY    35  34  96 CALM      30.29F FOG
6HR MIN TEMP:  33; 6HR MAX TEMP:  37;



...EASTERN GEORGIA...

CITY           SKY/WX    TMP DP  RH WIND       PRES   REMARKS
AUGUSTA BUSH F CLOUDY    27  25  92 CALM      30.29R FOG
6HR MIN TEMP:  26; 6HR MAX TEMP:  28;

AUGUSTA DANIEL CLOUDY    35  31  85 CALM      30.27S FOG
6HR MIN TEMP:  33; 6HR MAX TEMP:  39;

THOMSON        CLOUDY    28  26  94 CALM      30.31R FOG
6HR MIN TEMP:  27; 6HR MAX TEMP:  29;

WASHINGTON     FAIR      32  30  93 CALM      30.24S
CLAXTON        FAIR      34  33  96 CALM      30.30R
6HR MIN TEMP:  32; 6HR MAX TEMP:  34;

SYLVANIA       CLOUDY    33  33 100 CALM      30.29R FOG
6HR MIN TEMP:  31; 6HR MAX TEMP:  33;

STATESBORO     CLOUDY    33  33 100 CALM      30.30R
6HR MIN TEMP:  31; 6HR MAX TEMP:  33;

SAVANNAH       CLOUDY    36  34  92 CALM      30.30S
6HR MIN TEMP:  33; 6HR MAX TEMP:  37;



...SOUTHERN NORTH CAROLINA...

CITY           SKY/WX    TMP DP  RH WIND       PRES   REMARKS
CHARLOTTE      CLOUDY    31  26  82 CALM      30.26S
6HR MIN TEMP:  28; 6HR MAX TEMP:  34;

MONROE         CLOUDY    31  25  78 CALM      30.25S
6HR MIN TEMP:  26; 6HR MAX TEMP:  35;

WADESBORO      CLOUDY    23  20  89 CALM      30.29R
ASHEVILLE      CLOUDY    27  25  92 CALM      30.24R
6HR MIN TEMP:  26; 6HR MAX TEMP:  29;


$$



USA.gov is the U.S. government's official web portal to all federal, state and local government web resources and services.